Regional Weather Roundup
Issued by NWS Sterling, VA

Home | Current Version | Previous Version | Graphics & Text | Print | Product List | Glossary On
Versions: 1 2 3 4 5 6 7 8 9 10 11 12 13 14 15 16 17 18 19 20 21 22 23 24 25 26 27 28 29 30 31 32 33 34 35 36 37 38 39 40 41 42 43 44 45 46 47 48 49 50
000
ASUS41 KLWX 171011
RWRLWX

REGIONAL WEATHER ROUNDUP
NATIONAL WEATHER SERVICE BALTIMORE MD/WASHINGTON DC
500 AM EST SUN DEC 17 2017

Note: "FAIR" indicates few or no clouds below 12,000 feet
with no significant weather and/or obstructions to visibility.
 TC=TEMPERATURE CELSIUS

 * =Non NWS site. Station does not report precipitation (e.g. rain,
    snow, etc.), thunder, or fog.

DCZ001-MDZ009-015-VAZ040>042-051-053>054-171100-
WASHINGTON METRO

CITY           SKY/WX    TMP DP  RH WIND       PRES   REMARKS
WASHINGTON NAT PTCLDY    33  27  78 S5        30.24F
DULLES         CLOUDY    25  22  88 CALM      30.23S
ANDREWS AFB    PTCLDY    28  22  79 CALM      30.22S
FT BELVOIR     CLOUDY    24  21  89 CALM      30.24F
QUANTICO       CLOUDY    28  25  88 NW7       30.25F
COLLEGE PARK*  CLOUDY    24  21  90 CALM      30.23S
LEESBURG*      CLOUDY    27  25  93 CALM      30.23S
MANASSAS*      PTCLDY    20  18  92 CALM      30.24F
GAITHERSBURG*  CLOUDY    25  22  88 CALM      30.22S

$$

MDZ006>007-011-014-171100-
BALTIMORE METRO

CITY           SKY/WX    TMP DP  RH WIND       PRES   REMARKS
BWI AIRPORT    PTCLDY    26  24  92 SW5       30.22S
MD SCIENCE CTR   N/A     34  26  72 MISG      30.22F
MARTIN STATE   PTCLDY    28  28 100 CALM      30.24F
ANNAPOLIS      PTCLDY    32  30  92 CALM      30.23R
FORT MEADE*    CLOUDY    23  23 100 CALM      30.25S

$$

MDZ012-015-019>023-171100-
MARYLAND EASTERN SHORE

CITY           SKY/WX    TMP DP  RH WIND       PRES   REMARKS
OCEAN CITY     PTCLDY    31  27  85 W3        30.25S
SALISBURY      CLOUDY    27  26  96 S3        30.24S
BAY BRIDGE AP* CLOUDY    30  27  86 CALM      30.23S
CAMBRIDGE*     CLEAR     27  25  93 CALM      30.24S
EASTON*        PTCLDY    28  25  88 CALM      30.27S

$$

MDZ017>025-171100-
SOUTHERN MARYLAND

CITY           SKY/WX    TMP DP  RH WIND       PRES   REMARKS
PATUXENT RIVER PTCLDY    29  25  85 NE3       30.23F
ST INIGOES     PTCLDY    29  26  89 CALM      30.24F
LEONARDTOWN*   PTCLDY    30  27  86 CALM      30.25F

$$

MDZ003>005-171100-
NORTH CENTRAL MARYLAND

CITY           SKY/WX    TMP DP  RH WIND       PRES   REMARKS
FREDERICK*     PTCLDY    27  27 100 CALM      30.25S
HAGERSTOWN APT CLEAR     30  22  72 S5        30.19F
WESTMINSTER*   PTCLDY    32  25  74 SW5       30.19S

$$

MDZ501>502-171100-
WESTERN MARYLAND

CITY           SKY/WX    TMP DP  RH WIND       PRES   REMARKS
OAKLAND*       CLEAR     32  25  74 W9G17     30.10S WCI  24
CUMBERLAND*    CLEAR     27  27 100 CALM      30.24F

$$

VAZ025>031-171100-
SHENANDOAH VALLEY

CITY           SKY/WX    TMP DP  RH WIND       PRES   REMARKS
WINCHESTER*    CLOUDY    34  23  64 W6        30.20F
FRONT ROYAL*   FAIR      28  23  80 MISG      30.20F
LURAY*         CLOUDY    30  27  86 S6        30.22S
NEW MARKET*    PTCLDY    25  20  82 SW6       30.22S
STAUNTON*      PTCLDY    25  21  83 NE3       30.23F
WAYNESBORO*    PTCLDY    39  23  52 W7        30.21F

$$

WVZ021-048>050-054>055-171100-
EASTERN WEST VIRGINIA PANHANDLE

CITY           SKY/WX    TMP DP  RH WIND       PRES   REMARKS
MARTINSBURG    CLOUDY    31  22  69 S7        30.19F
PETERSBURG*    CLOUDY    25  21  83 CALM      30.21F

$$

VAZ036>039-050-171100-
CENTRAL FOOTHILLS

CITY           SKY/WX    TMP DP  RH WIND       PRES   REMARKS
CHARLOTTESVILL CLOUDY    32  25  75 CALM      30.21F
CULPEPER*      FAIR      23  19  85 CALM      30.24S
ORANGE*        CLOUDY    25  21  86 CALM      30.22F
GORDONSVILLE*  CLOUDY    26  24  91 CALM      30.21F
WARRENTON*     CLOUDY    22  18  85 CALM      30.22S

$$

VAZ055>057-171100-
NORTH AND CENTRAL PIEDMONT

CITY           SKY/WX    TMP DP  RH WIND       PRES   REMARKS
FREDERICKSBRG* CLOUDY    25  23  95 CALM      30.24S
STAFFORD*      CLOUDY   N/A N/A N/A CALM      30.27F

$$

NCZ024-NYZ072-PAZ021-071-VAZ022-071-171100-
OTHER REGIONAL OBSERVATIONS

CITY           SKY/WX    TMP DP  RH WIND       PRES   REMARKS
NEW YORK CITY  CLOUDY    33  20  58 VRB3      30.28S
PHILADELPHIA   PTCLDY    31  25  78 E6        30.24S
PITTSBURGH     CLOUDY    37  27  67 SW6       30.15F
ROANOKE        PTCLDY    35  24  64 E5        30.24S
RICHMOND       CLOUDY    28  23  81 CALM      30.23S
RALEIGH        CLOUDY    31  24  75 CALM      30.26F

$$

ANZ530>537-171100-
MARINE OBSERVATIONS

STATION/POSITION TIME  TEMP    WIND        PRES
                       AIR SEA DIR/SP/G
                 (UTC) (F)     (DEG/KT/KT) (MB)
THOMAS PT LIGHT  1000   38 43  220/  6/  6   N/A
BALT KEY BRIDGE  0942   35     180/  2/  3 1023.6F
COVE POINT       0942   38     280/  3/  5 1024.4F
LEWISETTA        0942   35 40   CALM  /  1 1024.0F
SOLOMONS ISLAND  0942   36 45  360/  2/  3 1023.5F
PINEY POINT      0942          330/  3/  4   N/A

$$




USA.gov is the U.S. government's official web portal to all federal, state and local government web resources and services.